Location: Cz?stochówka
(50.8142°N, 19.0915°E)
Time: 15:00:28
(UTC+00:00)

Cosmos 2366 rocket - Pass Details

Date: 20 April 2026
Orbit: 954 x 996 km, 82.9° (Epoch: 16 May)

Event Time Altitude Azimuth Distance (km) Brightness Sun altitude
Rises 18:09:33 0° 175° (S) 3,631 6.7 -4.1°
Reaches altitude 10° 18:12:04 10° 172° (S) 2,685 6.0 -4.5°
Maximum altitude 18:18:05 62° 94° (E) 1,074 4.0 -5.3°
Drops below altitude 10° 18:24:08 10° 15° (NNE) 2,695 6.5 -6.2°
Sets 18:26:40 0° 13° (NNE) 3,646 7.2 -6.6°
